Regional Weather Roundup
Issued by NWS Northern Indiana

Home | Current Version | Previous Version | Text Only | Print | Product List | Glossary On
Versions: 1 2 3 4 5 6 7 8 9 10 11 12 13 14 15 16 17 18 19 20 21 22 23 24 25 26 27 28 29 30 31 32 33 34 35 36 37 38 39 40 41 42 43 44 45 46 47 48 49 50
000
ASUS43 KIWX 020700
RWRIWX

KIWX WEATHER ROUNDUP
NATIONAL WEATHER SERVICE NORTHERN INDIANA
300 AM EDT TUE SEP 02 2014

NOTE: "FAIR" INDICATES FEW OR NO CLOUDS BELOW 12,000 FEET WITH NO
SIGNIFICANT WEATHER AND/OR OBSTRUCTIONS TO VISIBILITY.

* THESE STATIONS ARE NOT UNDER NWS QUALITY CONTROL. THEY ALSO MAY NOT
  REPORT WEATHER SUCH AS PRECIPITATION OR FOG.

INZ001>027-020800-
NORTHERN INDIANA

CITY           SKY/WX    TMP DP  RH WIND       PRES   REMARKS
VALPARAISO     CLOUDY    70  65  84 W6        29.88F
KNOX*          CLOUDY    68  64  88 CALM      29.88S
SOUTH BEND     CLOUDY    71  65  81 SW8       29.90R
GOSHEN         CLOUDY    70  65  84 SW7       29.90R
MONTICELLO*    CLOUDY    70  67  91 SW8       29.90F
ANGOLA*        CLEAR     70  61  73 SW7       29.91R
FORT WAYNE     MOCLDY    68  65  90 SW7       29.92R
PERU/GRISSOM   LGT RAIN  70  70 100 SW13      29.92S

$$
INZ028>050-020800-
CENTRAL INDIANA

CITY           SKY/WX    TMP DP  RH WIND       PRES   REMARKS
LAFAYETTE      LGT RAIN  69  67  93 SW12      29.93R
KOKOMO*        CLOUDY    72  66  83 SW12      29.94R
MUNCIE*        MOCLDY    72  68  87 SW7       29.94F
INDIANAPOLIS   TSTM      72  68  87 W16       29.95S

$$
MIZ043>046-050>051-056>058-064>065-071>073-077>080-020800-
SOUTHWEST LOWER MICHIGAN

CITY           SKY/WX    TMP DP  RH WIND       PRES   REMARKS
BATTLE CREEK   CLOUDY    71  65  81 SW9       29.86S
BENTON HARBOR  CLOUDY    71  68  90 W8        29.86R
COLDWATER*     MOCLDY    70  67  90 SW7       29.88S
HILLSDALE*     PTCLDY    70  68  93 SW7       29.89S
HOLLAND        CLOUDY    70  66  87 W5        29.85S
GRAND RAPIDS   MOCLDY    70  70 100 W7        29.84S
KALAMAZOO      CLOUDY    71  65  81 SW7       29.87R
STURGIS*         N/A     68  66  94 SW7       29.89R
THREE RIVERS*  CLOUDY    70  67  90 SW5       29.88R

$$
OHZ001>008-015>018-024>025-020800-
NORTHWEST OHIO

CITY           SKY/WX    TMP DP  RH WIND       PRES   REMARKS
DEFIANCE       CLEAR     70  65  84 SW7       29.91R
FINDLAY        CLEAR     72  67  84 SW10      29.91S
TOLEDO EXPRESS CLEAR     72  66  81 SW6       29.88S
TOLEDO METCALF CLEAR     72  67  84 SW8       29.88F
LIMA           CLEAR     72  68  87 SW7       29.94R

$$
&&


USA.gov is the U.S. government's official web portal to all federal, state and local government web resources and services.